To NAV CANADA Home Page Login to a new session Search on AWWS site Feedback and Comments Disclaimer Vers la page française équivalente Tips FAQ What's new on the site To the Forecasts and Observations / NOTAM section To "File a Flight Plan" website Publications and other links Update of the User's profile FIC Telephone Numbers My Weather Data Folder Route Weather Data Regional Weather Data Local Weather Data To the Forecasts and Observations / NOTAM section
Request Generated 08/24/2016 at 08:24:39 UTC . Weather information available at that time is displayed.

METAR/TAF

PANGNIRTUNG/NU    (show WxCam)

LWIS CYXP 240800Z AUTO 11009G15KT 080V140 10/08 A2950=
LWIS CYXP 240700Z AUTO 11005KT 060V120 08/07 A2954=
LWIS CYXP 240600Z AUTO 24003KT 07/06 A2957=

*** REMARK        : Forecast period has ended; this was the last TAF issued
*** REMARQUE : La période de prévision est échue; ceci était le dernier TAF qui a été émis
TAF AMD CYXP 232006Z 2320/2322 26007KT P6SM FEW020 SCT040 OVC090
TEMPO 2320/2322 2SM -RA BR BKN020 OVC040
RMK NXT FCST WILL BE ISSUED AT 241245Z=
Your time UTC time
Weather data provided by Environment Canada and NAV CANADA